Jackson, MN

7:41 AM CST on February 28, 2017 (GMT -0600)
Jackson Municipal

Weather History for KMJQ - July, 2013

Change the Weather History Date:

Sunday, July 14, 2013

  Actual Average Record
Temperature  
Mean Temperature 77 °F -  
Max Temperature 86 °F 79 °F 95 °F (2008)
Min Temperature 68 °F 60 °F 51 °F (2014)
Cooling Degree Days 12    
Growing Degree Days 27 (Base 50)    
Moisture  
Dew Point 58 °F    
Average Humidity 55    
Maximum Humidity 78    
Minimum Humidity 29    
Precipitation  
Precipitation 0.00 in - - ()
Sea Level Pressure  
Sea Level Pressure 30.12 in    
Wind  
Wind Speed 11 mph (SSE)    
Max Wind Speed 17 mph    
Max Gust Speed 24 mph    
Visibility 10 miles    
Events Rain    
Averages and records for this station are not official NWS values.
T = Trace of Precipitation, MM = Missing Value Source: NWS Daily Summary

Daily Weather History Graph

Daily Weather History Graph

Search for Another Location

Airport or City:

Trip Planner

Search our weather history database for the weather conditions in past years. The results will help you decide how hot, cold, wet, or windy it might be!

Date:

Astronomy

Jul. 14, 2013 Rise Set
Actual Time 5:51 AM CDT 8:59 PM CDT
Civil Twilight 5:16 AM CDT 9:34 PM CDT
Nautical Twilight 4:32 AM CDT 10:18 PM CDT
Astronomical Twilight 3:38 AM CDT 11:12 PM CDT
Moon 12:23 PM CDT (7/14) 11:57 PM CDT (7/14)
Length of Visible Light 16h 17m
Length of Day
15h 07m
Waxing Crescent, 35% of the Moon is Illuminated
Jul 14
Waxing Crescent
Jul 15
First Quarter
Jul 22
Full
Jul 29
Last Quarter
Aug 6
New

Hourly Weather History & Observations

Time (CDT) Temp. Heat Index Dew Point Humidity Pressure Visibility Wind Dir Wind Speed Gust Speed Precip Events Conditions
12:14 AM 71.6 °F - 60.8 °F 69% 30.08 in 10.0 mi SSE 10.4 mph - N/A   Clear
12:33 AM 69.8 °F - 60.8 °F 73% 30.08 in 10.0 mi SSE 12.7 mph - N/A   Clear
12:54 AM 69.8 °F - 60.8 °F 73% 30.08 in 10.0 mi SSE 10.4 mph - N/A   Clear
1:13 AM 69.8 °F - 60.8 °F 73% 30.08 in 10.0 mi SSE 11.5 mph - N/A   Clear
1:34 AM 71.6 °F - 60.8 °F 69% 30.08 in 10.0 mi SSE 15.0 mph 18.4 mph N/A   Clear
1:54 AM 71.6 °F - 59.0 °F 64% 30.07 in 10.0 mi SSE 12.7 mph 17.3 mph N/A   Clear
2:13 AM 69.8 °F - 57.2 °F 64% 30.08 in 10.0 mi SSE 12.7 mph - N/A   Clear
2:34 AM 69.8 °F - 57.2 °F 64% 30.08 in 10.0 mi SSE 13.8 mph 17.3 mph N/A   Clear
2:54 AM 69.8 °F - 57.2 °F 64% 30.07 in 10.0 mi SSE 13.8 mph 20.7 mph N/A   Clear
3:14 AM 69.8 °F - 55.4 °F 60% 30.05 in 10.0 mi SSE 17.3 mph - N/A   Clear
3:33 AM 69.8 °F - 57.2 °F 64% 30.04 in 10.0 mi SSE 17.3 mph 24.2 mph N/A   Clear
3:54 AM 69.8 °F - 55.4 °F 60% 30.04 in 10.0 mi SSE 15.0 mph 20.7 mph N/A   Clear
4:14 AM 69.8 °F - 57.2 °F 64% 30.04 in 10.0 mi South 16.1 mph 20.7 mph N/A   Clear
4:33 AM 69.8 °F - 57.2 °F 64% 30.04 in 10.0 mi South 15.0 mph 20.7 mph N/A   Clear
4:54 AM 69.8 °F - 57.2 °F 64% 30.06 in 10.0 mi South 15.0 mph 23.0 mph N/A   Clear
5:14 AM 69.8 °F - 59.0 °F 68% 30.07 in 10.0 mi South 13.8 mph 19.6 mph N/A   Mostly Cloudy
5:33 AM 69.8 °F - 59.0 °F 68% 30.08 in 10.0 mi South 16.1 mph 24.2 mph N/A   Overcast
5:54 AM 69.8 °F - 59.0 °F 68% 30.07 in 10.0 mi South 12.7 mph 19.6 mph N/A   Overcast
6:14 AM 69.8 °F - 59.0 °F 68% 30.08 in 10.0 mi SSE 15.0 mph 20.7 mph N/A   Overcast
6:33 AM 69.8 °F - 59.0 °F 68% 30.09 in 10.0 mi South 15.0 mph 19.6 mph N/A   Overcast
6:54 AM 69.8 °F - 59.0 °F 68% 30.09 in 10.0 mi SSE 12.7 mph 20.7 mph N/A   Overcast
7:14 AM 69.8 °F - 60.8 °F 73% 30.11 in 10.0 mi South 9.2 mph - N/A   Mostly Cloudy
7:33 AM 68.0 °F - 60.8 °F 78% 30.11 in 10.0 mi South 8.1 mph - N/A   Overcast
7:54 AM 69.8 °F - 60.8 °F 73% 30.11 in 10.0 mi SSE 8.1 mph - N/A   Overcast
8:14 AM 69.8 °F - 60.8 °F 73% 30.11 in 10.0 mi SSE 10.4 mph - N/A   Overcast
8:34 AM 69.8 °F - 60.8 °F 73% 30.12 in 7.0 mi SSE 8.1 mph - N/A Rain Light Rain
8:53 AM 68.0 °F - 60.8 °F 78% 30.12 in 10.0 mi SSE 11.5 mph - N/A   Overcast
9:14 AM 69.8 °F - 60.8 °F 73% 30.12 in 10.0 mi SSE 10.4 mph - N/A   Mostly Cloudy
9:34 AM 69.8 °F - 60.8 °F 73% 30.12 in 10.0 mi SSE 10.4 mph - N/A   Scattered Clouds
9:53 AM 71.6 °F - 60.8 °F 69% 30.13 in 10.0 mi SSE 10.4 mph 17.3 mph N/A   Scattered Clouds
10:14 AM 73.4 °F - 60.8 °F 65% 30.13 in 10.0 mi South 9.2 mph 17.3 mph N/A   Scattered Clouds
10:34 AM 75.2 °F - 60.8 °F 61% 30.14 in 10.0 mi South 13.8 mph 17.3 mph N/A   Scattered Clouds
10:53 AM 77.0 °F - 60.8 °F 57% 30.14 in 10.0 mi South 8.1 mph - N/A   Clear
11:14 AM 78.8 °F - 60.8 °F 54% 30.14 in 10.0 mi SSE 15.0 mph - N/A   Clear
11:33 AM 80.6 °F 81.1 °F 59.0 °F 48% 30.14 in 10.0 mi South 12.7 mph - N/A   Clear
11:54 AM 80.6 °F 81.1 °F 59.0 °F 48% 30.14 in 10.0 mi South 13.8 mph - N/A   Clear
12:13 PM 82.4 °F 82.5 °F 59.0 °F 45% 30.14 in 10.0 mi South 12.7 mph 17.3 mph N/A   Scattered Clouds
12:34 PM 82.4 °F 82.0 °F 57.2 °F 42% 30.14 in 10.0 mi SSE 10.4 mph - N/A   Mostly Cloudy
12:54 PM 82.4 °F 82.0 °F 57.2 °F 42% 30.15 in 10.0 mi South 11.5 mph 17.3 mph N/A   Scattered Clouds
1:13 PM 84.2 °F 83.5 °F 57.2 °F 40% 30.15 in 10.0 mi South 12.7 mph 18.4 mph N/A   Mostly Cloudy
1:34 PM 82.4 °F 81.7 °F 55.4 °F 39% 30.15 in 10.0 mi SSE 8.1 mph - N/A   Scattered Clouds
1:54 PM 86.0 °F 84.5 °F 55.4 °F 35% 30.15 in 10.0 mi SSE 11.5 mph - N/A   Scattered Clouds
2:13 PM 84.2 °F 83.0 °F 55.4 °F 37% 30.15 in 10.0 mi SSE 12.7 mph - N/A   Scattered Clouds
2:34 PM 84.2 °F - 50.0 °F 30% 30.14 in 10.0 mi SSE 11.5 mph 17.3 mph N/A   Clear
2:54 PM 86.0 °F - 51.8 °F 31% 30.14 in 10.0 mi SSE 11.5 mph 18.4 mph N/A   Clear
3:13 PM 86.0 °F - 50.0 °F 29% 30.14 in 10.0 mi SE 9.2 mph 16.1 mph N/A   Clear
3:34 PM 86.0 °F - 50.0 °F 29% 30.14 in 10.0 mi SE 11.5 mph - N/A   Clear
3:54 PM 86.0 °F 84.2 °F 53.6 °F 33% 30.13 in 10.0 mi SE 15.0 mph 19.6 mph N/A   Clear
4:13 PM 86.0 °F - 51.8 °F 31% 30.14 in 10.0 mi SE 12.7 mph 18.4 mph N/A   Clear
4:34 PM 86.0 °F 84.2 °F 53.6 °F 33% 30.13 in 10.0 mi SSE 10.4 mph - N/A   Clear
4:54 PM 86.0 °F 84.2 °F 53.6 °F 33% 30.13 in 10.0 mi SSE 9.2 mph - N/A   Clear
5:14 PM 86.0 °F 84.2 °F 53.6 °F 33% 30.13 in 10.0 mi SE 11.5 mph - N/A   Clear
5:33 PM 86.0 °F 84.5 °F 55.4 °F 35% 30.13 in 10.0 mi SSE 12.7 mph 18.4 mph N/A   Clear
5:54 PM 86.0 °F 84.2 °F 53.6 °F 33% 30.13 in 10.0 mi SSE 10.4 mph 16.1 mph N/A   Clear
6:14 PM 84.2 °F 82.8 °F 53.6 °F 35% 30.13 in 10.0 mi SSE 11.5 mph - N/A   Clear
6:33 PM 84.2 °F 83.0 °F 55.4 °F 37% 30.13 in 10.0 mi SSE 8.1 mph - N/A   Clear
6:54 PM 84.2 °F 83.0 °F 55.4 °F 37% 30.14 in 10.0 mi SSE 8.1 mph - N/A   Clear
7:13 PM 82.4 °F 82.0 °F 57.2 °F 42% 30.14 in 10.0 mi SSE 6.9 mph - N/A   Clear
7:34 PM 82.4 °F 82.5 °F 59.0 °F 45% 30.15 in 10.0 mi SSE 5.8 mph - N/A   Clear
7:54 PM 80.6 °F 81.1 °F 59.0 °F 48% 30.15 in 10.0 mi SSE 4.6 mph - N/A   Clear
8:13 PM 80.6 °F 81.1 °F 59.0 °F 48% 30.15 in 10.0 mi SSE 3.5 mph - N/A   Clear
8:34 PM 78.8 °F - 59.0 °F 51% 30.15 in 10.0 mi SSE 4.6 mph - N/A   Scattered Clouds
8:54 PM 78.8 °F - 59.0 °F 51% 30.16 in 10.0 mi SSE 3.5 mph - N/A   Scattered Clouds
9:13 PM 77.0 °F - 60.8 °F 57% 30.16 in 10.0 mi SSE 3.5 mph - N/A   Clear
9:33 PM 75.2 °F - 60.8 °F 61% 30.17 in 10.0 mi SE 3.5 mph - N/A   Scattered Clouds
9:54 PM 75.2 °F - 60.8 °F 61% 30.18 in 10.0 mi SE 3.5 mph - N/A   Scattered Clouds
10:13 PM 73.4 °F - 60.8 °F 65% 30.19 in 10.0 mi Calm Calm - N/A   Scattered Clouds
10:33 PM 73.4 °F - 60.8 °F 65% 30.19 in 10.0 mi SE 5.8 mph - N/A   Scattered Clouds
10:54 PM 73.4 °F - 59.0 °F 61% 30.20 in 10.0 mi South 5.8 mph - N/A   Scattered Clouds
11:13 PM 71.6 °F - 60.8 °F 69% 30.20 in 10.0 mi South 4.6 mph - N/A   Scattered Clouds
11:33 PM 71.6 °F - 60.8 °F 69% 30.20 in 10.0 mi SSE 5.8 mph - N/A   Scattered Clouds
11:54 PM 71.6 °F - 60.8 °F 69% 30.21 in 10.0 mi SSE 6.9 mph - N/A   Clear